Starlink 3588

operational
NORAD ID: 51869 Int'l Des: 2022-022 Owner: SPXS Country: US Constellation: starlink
LEOCIRCULAR

About Starlink 3588

Description loading...

Live Position

Loading 3D Globe...

Upcoming Passes

Altitude History

Altitude vs Time

uPlot chart will show altitude changes over time

Two-Line Element Set

1 51869U 22022T 25258.74429477 .00000606 00000-0 56150-4 0 9996
2 51869 53.2175 74.4831 0001309 88.7424 271.3719 15.08842943196704
Epoch: Sep 15, 2025 • Age: 16 hours

Current Status

Altitude 547.0 km
Velocity 7.59 km/s
Sub-Earth Point -23.63°S, 87.48°W
Launch Date Mar 3, 2022
Age 3.5 years
Type internet

Technical Details

Classification Payload
Mass 297.00 kg
Dry Mass 275.00 kg
Total Mass 297.00 kg
Length 0.20 m
Diameter 2.80 m
Span 9.00 m
Shape Box + pan
Manufacturer SPXS
Bus Type Starlink
Phase Status In Orbit
Owner/State SPXS/US

Large Constellations

Loading constellations...